Location: Newark
(48.4281°N, 5.9947°E)
Time: 07:17:02
(UTC+00:00)

OTV 5 (USA 277) - Visible Passes

Search period start: 21 October 2019 00:00
Search period end: 31 October 2019 00:00
Orbit: 310 x 324 km, 54.5° (Epoch: 17 October)

Date Brightness Start Highest point End Pass type
(mag) Time Alt. Az. Time Alt. Az. Time Alt. Az.
28 Oct ? 18:38:37 10° SW 18:38:41 10° SW 18:38:41 10° SW visible
29 Oct ? 17:20:35 10° SSE 17:21:48 12° SE 17:22:16 12° ESE visible
29 Oct ? 18:52:59 10° WSW 18:53:10 11° WSW 18:53:10 11° WSW visible
30 Oct ? 17:33:44 10° SSW 17:36:07 27° SE 17:36:39 25° ESE visible
